Satellite: MAST
Catalog number: 31126
Epoch time:      08002.22468481
Element set:    0222
Inclination:      098.0622 deg
RA of node:       073.1623 deg
Eccentricity:    0.0095717
Arg of perigee:   129.0078 deg
Mean anomaly:     231.9680 deg
Mean motion:   14.53388904 rev/day
Decay rate:       -3.8e-07 rev/day^2
Epoch rev:           03776
Checksum:              288

Satellite: CAPE1
Catalog number: 31130
Epoch time:      08002.90302714
Element set:     202
Inclination:      098.0616 deg
RA of node:       073.2065 deg
Eccentricity:    0.0103814
Arg of perigee:   128.7508 deg
Mean anomaly:     232.3022 deg
Mean motion:   14.51917944 rev/day
Decay rate:       1.20e-06 rev/day^2
Epoch rev:            3759
Checksum:              245

/EX




_______________________________________________
Via the Keps mailing list courtesy of AMSAT-NA
http://amsat.org/mailman/listinfo/keps

--- ViaMAIL!/WC v1.60d
 * Origin: Chowdanet (401-724-4410) telnet://chowdanet.com  (1:323/120)